Location: Newark
(63.1158°N, 8.1461°E)
Time: 06:21:45
(UTC+00:00)

Envisat - Pass Details

Date: 11 December 2019
Orbit: 764 x 766 km, 98.1° (Epoch: 25 January)

Event Time Altitude Azimuth Distance (km) Brightness Sun altitude
Rises 17:03:13 0° 167° (SSE) 3,230 6.3 -18.5°
Reaches altitude 10° 17:05:32 10° 169° (S) 2,307 5.5 -18.7°
Maximum altitude 17:10:37 72° 254° (WSW) 811 3.2 -19.3°
Drops below altitude 10° 17:15:44 10° 339° (NNW) 2,321 5.6 -19.9°
Sets 17:18:04 0° 342° (NNW) 3,251 6.3 -20.1°
